Back to catalog

USA 360

AliveMilitaryVLEO
NORAD 59820·PAYLOAD·🇺🇸 United States

Launched May 22, 2024 from Vandenberg Space Force Base

Loading…

Next Passes (next 24 hours)

TLE

StaleSource: Mike McCants

Epoch: Aug 12, 2026, 23:15 UTC

1 59820U 24096G   26224.96888661 0.00000000  00000-0  00000-0 0    06
2 59820  70.0200 169.5097 0004000 152.1900 207.8100 14.96713160    00

Track USA 360 in real time with AllMySat

Download on the App Store